Location: Dillon
(41.1766°N, 107.0923°W)
Time: 10:42:07
(UTC+00:00)

ITAMSAT 1 - Visible Passes

Search period start: 25 June 2022 00:00
Search period end: 05 July 2022 00:00
Orbit: 783 x 796 km, 98.9° (Epoch: 24 June)

Date Brightness Start Highest point End Pass type
(mag) Time Alt. Az. Time Alt. Az. Time Alt. Az.
26 Jun 10.3 03:30:43 10° SW 03:33:51 16° W 03:37:01 10° NW visible
29 Jun 10.4 03:42:35 10° WSW 03:44:47 13° W 03:47:00 10° WNW visible
30 Jun 9.9 03:10:45 10° SSW 03:14:55 24° W 03:19:07 10° NW visible
03 Jul 10.2 03:22:07 10° SW 03:25:49 20° W 03:29:32 10° NW visible
